User: anonymous   Login
Location: Brede
(50.9167°N, 0.6000°E)
Time: 01:05:11
(UTC+00:00)
Language:

Cosmos 990 Rocket - Orbit

View from above orbital plane
View from above orbital plane
View from above satellite
View from above satellite

Ground track
Ground track

The orbit data is extracted from the following two-line orbital elements,

1 10677U 78019B   20292.96092185 +.00000046 +00000-0 +22800-4 0  9997
2 10677 074.0392 207.5759 0015674 337.2583 022.7876 14.40157638237820
Epoch (UTC): 18 October 2020 23:03:43
Eccentricity: 0.0015674
inclination: 74.0392°
perigee height: 747 km
apogee height: 769 km
right ascension of ascending node: 207.5759°
argument of perigee: 337.2583°
revolutions per day: 14.40157638
mean anomaly at epoch: 22.7876°
orbit number at epoch: 23782

The dashed part of the orbit path shows where the satellite is in the earth's shadow,  

DLR